Weather History for Chehalis, WA

Change the Weather History Date:

Thursday, March 7, 2013

  Actual Average (KOLM) Record (KOLM)
Temperature  
Mean Temperature 43 °F 43 °F  
Max Temperature 53 °F 52 °F 69 °F (2001)
Min Temperature 33 °F 34 °F 22 °F (1974)
Degree Days  
Heating Degree Days 22 22  
Month to date heating degree days 155  
Since 1 July heating degree days 3877  
Cooling Degree Days 0 0  
Month to date cooling degree days 0  
Year to date cooling degree days 0  
Moisture  
Dew Point 39 °F    
Average Humidity 83    
Maximum Humidity 100    
Minimum Humidity 54    
Precipitation  
Precipitation 0.01 in 0.18 in 1.02 in (1977)
Month to date precipitation 1.28  
Year to date precipitation 14.39  
Sea Level Pressure  
Sea Level Pressure 30.04 in    
Wind  
Wind Speed 7 mph (South)    
Max Wind Speed 12 mph    
Max Gust Speed 17 mph    
Visibility 9 miles    
Events Fog , Rain    
T = Trace of Precipitation, MM = Missing Value Source: NWS Daily Summary

Daily Weather History Graph

Daily Weather History Graph

Search for Another Location

Airport:

Trip Planner

Search our weather history database for the weather conditions in past years. The results will help you decide how hot, cold, wet, or windy it might be!

Date:

Astronomy

Mar. 07, 2013 Rise Set
Actual Time 6:39 AM PST 6:06 PM PST
Civil Twilight 6:09 AM PST 6:37 PM PST
Nautical Twilight 5:34 AM PST 7:12 PM PST
Astronomical Twilight 4:59 AM PST 7:47 PM PST
Moon 3:56 AM PST (3/7) 1:48 PM PST (3/7)
Length of Visible Light 12h 27m
Length of Day
11h 27m
Waning Crescent, 19% of the Moon is Illuminated
Mar 7
Waning Crescent
Mar 11
New
Mar 19
First Quarter
Mar 27
Full
Apr 2
Last Quarter

Hourly Weather History & Observations

Time (PST) Temp. Windchill Dew Point Humidity Pressure Visibility Wind Dir Wind Speed Gust Speed Precip Events Conditions
12:15 AM 44.6 °F 40.7 °F 41.0 °F 87% 29.93 in 10.0 mi South 6.9 mph - N/A   Overcast
12:35 AM 44.6 °F 39.2 °F 41.0 °F 87% 29.93 in 10.0 mi South 10.4 mph - N/A   Overcast
12:55 AM 44.6 °F 38.8 °F 41.0 °F 87% 29.94 in 5.0 mi South 11.5 mph 16.1 mph N/A   Overcast
1:15 AM 42.8 °F 36.6 °F 41.0 °F 93% 29.94 in 9.0 mi South 11.5 mph 17.3 mph N/A   Overcast
1:35 AM 42.8 °F 37.5 °F 41.0 °F 93% 29.95 in 10.0 mi South 9.2 mph - N/A   Overcast
1:55 AM 42.8 °F 37.5 °F 41.0 °F 93% 29.96 in 10.0 mi South 9.2 mph - N/A   Overcast
2:15 AM 42.8 °F 36.6 °F 41.0 °F 93% 29.96 in 10.0 mi South 11.5 mph - N/A   Overcast
2:35 AM 42.8 °F 36.6 °F 41.0 °F 93% 29.96 in 9.0 mi South 11.5 mph 16.1 mph N/A Rain Light Rain
2:55 AM 42.8 °F 37.5 °F 41.0 °F 93% 29.97 in 10.0 mi South 9.2 mph - N/A   Overcast
3:15 AM 42.8 °F 36.6 °F 41.0 °F 93% 29.97 in 10.0 mi South 11.5 mph 16.1 mph N/A   Overcast
3:35 AM 42.8 °F 36.6 °F 41.0 °F 93% 29.97 in 10.0 mi South 11.5 mph 17.3 mph 0.01 in   Overcast
3:55 AM 42.8 °F 37.0 °F 41.0 °F 93% 29.97 in 10.0 mi South 10.4 mph 16.1 mph 0.01 in   Overcast
4:15 AM 42.8 °F 37.5 °F 39.2 °F 87% 29.98 in 10.0 mi South 9.2 mph 16.1 mph N/A   Overcast
4:35 AM 42.8 °F 37.0 °F 39.2 °F 87% 29.98 in 10.0 mi South 10.4 mph - N/A   Overcast
4:55 AM 42.8 °F 37.5 °F 39.2 °F 87% 29.99 in 10.0 mi South 9.2 mph - N/A   Overcast
5:15 AM 42.8 °F 37.5 °F 39.2 °F 87% 29.99 in 10.0 mi South 9.2 mph - N/A   Overcast
5:35 AM 42.8 °F 38.0 °F 39.2 °F 87% 30.00 in 10.0 mi South 8.1 mph - N/A   Overcast
6:15 AM 42.8 °F 38.0 °F 39.2 °F 87% 30.01 in 10.0 mi South 8.1 mph - N/A   Overcast
6:35 AM 42.8 °F 38.6 °F 39.2 °F 87% 30.01 in 10.0 mi South 6.9 mph - N/A   Overcast
6:55 AM 42.8 °F 38.6 °F 39.2 °F 87% 30.02 in 10.0 mi South 6.9 mph - N/A   Overcast
7:15 AM 42.8 °F 38.6 °F 39.2 °F 87% 30.03 in 10.0 mi South 6.9 mph - N/A   Overcast
7:35 AM 42.8 °F 38.6 °F 39.2 °F 87% 30.03 in 5.0 mi South 6.9 mph - N/A   Overcast
7:55 AM 42.8 °F 39.3 °F 39.2 °F 87% 30.04 in 5.0 mi SSE 5.8 mph - N/A   Overcast
8:15 AM 42.8 °F 39.3 °F 39.2 °F 87% 30.05 in 8.0 mi South 5.8 mph - N/A   Overcast
8:35 AM 42.8 °F 39.3 °F 39.2 °F 87% 30.05 in 10.0 mi South 5.8 mph - N/A   Overcast
8:55 AM 42.8 °F 38.0 °F 39.2 °F 87% 30.05 in 10.0 mi South 8.1 mph - N/A   Overcast
9:15 AM 44.6 °F 40.2 °F 39.2 °F 81% 30.06 in 10.0 mi South 8.1 mph - N/A   Mostly Cloudy
9:35 AM 44.6 °F 39.7 °F 39.2 °F 81% 30.06 in 10.0 mi South 9.2 mph 16.1 mph N/A   Mostly Cloudy
9:55 AM 46.4 °F 42.4 °F 39.2 °F 76% 30.07 in 10.0 mi South 8.1 mph - N/A   Overcast
10:15 AM 46.4 °F 41.9 °F 39.2 °F 76% 30.07 in 10.0 mi South 9.2 mph - N/A   Overcast
10:35 AM 46.4 °F 42.4 °F 39.2 °F 76% 30.07 in 10.0 mi South 8.1 mph - N/A   Overcast
10:55 AM 48.2 °F - 39.2 °F 71% 30.08 in 10.0 mi South 9.2 mph - N/A   Mostly Cloudy
11:15 AM 48.2 °F - 39.2 °F 71% 30.08 in 10.0 mi South 9.2 mph - N/A   Overcast
11:35 AM 48.2 °F - 37.4 °F 66% 30.08 in 5.0 mi South 10.4 mph 17.3 mph N/A   Haze
11:55 AM 48.2 °F - 37.4 °F 66% 30.08 in 5.0 mi SSW 9.2 mph - N/A   Haze
12:15 PM 50.0 °F - 39.2 °F 66% 30.08 in 5.0 mi SSW 8.1 mph - N/A   Haze
12:35 PM 50.0 °F - 39.2 °F 66% 30.07 in 5.0 mi South 5.8 mph - N/A   Haze
12:55 PM 51.8 °F - 39.2 °F 62% 30.06 in 5.0 mi South 5.8 mph - N/A   Haze
1:15 PM 53.6 °F - 39.2 °F 58% 30.06 in 8.0 mi SW 4.6 mph - N/A   Scattered Clouds
1:35 PM 53.6 °F - 37.4 °F 54% 30.05 in 10.0 mi SW 4.6 mph - N/A   Partly Cloudy
1:55 PM 53.6 °F - 37.4 °F 54% 30.05 in 10.0 mi SSE 4.6 mph - N/A   Clear
2:15 PM 53.6 °F - 37.4 °F 54% 30.05 in 10.0 mi West 3.5 mph - N/A   Mostly Cloudy
2:35 PM 51.8 °F - 37.4 °F 58% 30.05 in 10.0 mi WNW 3.5 mph - N/A   Overcast
2:55 PM 53.6 °F - 39.2 °F 58% 30.05 in 5.0 mi West 3.5 mph - N/A   Haze
3:15 PM 51.8 °F - 37.4 °F 58% 30.05 in 10.0 mi Calm Calm - N/A   Overcast
3:35 PM 53.6 °F - 37.4 °F 54% 30.05 in 10.0 mi Calm Calm - N/A   Mostly Cloudy
3:55 PM 51.8 °F - 41.0 °F 67% 30.05 in 10.0 mi NNW 8.1 mph - N/A   Mostly Cloudy
5:55 PM 46.4 °F - 41.0 °F 81% 30.06 in 10.0 mi Calm Calm - N/A   Clear
6:15 PM 44.6 °F - 41.0 °F 87% 30.06 in 10.0 mi Calm Calm - N/A   Clear
6:35 PM 44.6 °F - 41.0 °F 87% 30.07 in 10.0 mi Calm Calm - N/A   Clear
6:55 PM 42.8 °F - 41.0 °F 93% 30.07 in 10.0 mi Calm Calm - N/A   Clear
7:15 PM 41.0 °F - 39.2 °F 93% 30.07 in 10.0 mi Calm Calm - N/A   Clear
7:35 PM 41.0 °F 39.0 °F 39.2 °F 93% 30.08 in 9.0 mi North 3.5 mph - N/A   Clear
7:55 PM 41.0 °F - 39.2 °F 93% 30.08 in 9.0 mi Calm Calm - N/A   Partly Cloudy
8:15 PM 39.2 °F - 37.4 °F 93% 30.08 in 10.0 mi Calm Calm - N/A   Mostly Cloudy
8:35 PM 39.2 °F - 37.4 °F 93% 30.08 in 7.0 mi Calm Calm - N/A   Mostly Cloudy
8:55 PM 37.4 °F - 37.4 °F 100% 30.08 in 7.0 mi Calm Calm - N/A   Partly Cloudy
9:15 PM 37.4 °F - 35.6 °F 93% 30.08 in 10.0 mi Calm Calm - N/A   Clear
9:35 PM 37.4 °F - 35.6 °F 93% 30.09 in 10.0 mi Calm Calm - N/A   Clear
9:55 PM 35.6 °F - 35.6 °F 100% 30.09 in 7.0 mi Calm Calm - N/A   Clear
10:15 PM 35.6 °F - 35.6 °F 100% 30.09 in 5.0 mi Calm Calm - N/A   Clear
10:35 PM 35.6 °F - 35.6 °F 100% 30.09 in 8.0 mi Calm Calm - N/A   Clear
10:55 PM 35.6 °F - 35.6 °F 100% 30.09 in 10.0 mi Calm Calm - N/A   Scattered Clouds
11:15 PM 33.8 °F - 32.0 °F 93% 30.09 in 5.0 mi Calm Calm - N/A   Overcast
11:35 PM 35.6 °F - 33.8 °F 93% 30.09 in 1.2 mi Calm Calm - N/A   Overcast
11:55 PM 35.6 °F - 35.6 °F 100% 30.09 in 0.2 mi Calm Calm - N/A Fog Fog